Regional Weather Roundup
Issued by NWS

Home | Current Version | Previous Version | Text Only | Print | Product List | Glossary On
Versions: 1 2 3 4 5 6 7 8 9 10 11 12 13 14 15 16 17 18 19 20 21 22 23 24 25 26 27 28 29 30 31 32 33 34 35 36 37 38 39 40 41 42 43 44 45 46 47 48
000
ASUS46 KPQR 050810
RWROR

OREGON REGIONAL WEATHER ROUNDUP
NATIONAL WEATHER SERVICE PORTLAND OR
100 AM PDT SAT SEP 05 2015

NOTE: "FAIR" INDICATES FEW OR NO CLOUDS BELOW 12,000 FEET WITH
NO SIGNIFICANT WEATHER AND/OR OBSTRUCTIONS TO VISIBILITY.

ORZ001>013-050900-
NORTHWEST OREGON


CITY           SKY/WX    TMP DP  RH WIND       PRES   REMARKS
ASTORIA        PTCLDY    50  48  93 SE5       30.04R
NEWPORT        CLEAR     46  45  93 CALM      30.09R
PORTLAND       PTCLDY    56  47  71 NW3       30.03R
VANCOUVER WA   CLOUDY    55  46  71 CALM      30.02R
SCAPPOOSE      CLEAR     54  47  77 VRB5      30.01R
HILLSBORO      PTCLDY    50  45  83 W5        30.03R
AURORA         MOCLDY    49  46  90 S3        30.05R
MCMINNVILLE    MOCLDY    49  46  90 SW5       30.04R
SALEM          MOCLDY    52  45  77 CALM      30.03R
CORVALLIS      CLEAR     46  43  87 CALM      30.06R
EUGENE         PTCLDY    47  44  90 S7        30.05R
$$

ORZ021-028-050900-
SOUTHWEST OREGON


CITY           SKY/WX    TMP DP  RH WIND       PRES   REMARKS
NORTH BEND     MOCLDY    54  54 100 CALM      30.09R
BROOKINGS      CLEAR     52  49  89 CALM      30.05R
ROSEBURG       PTCLDY    50  46  86 CALM      30.07R
SEXTON SUMMIT  FOG       42  41  96 N3        30.05R VSB 1/2
MEDFORD        PTCLDY    52  43  71 N3        30.05S
$$

ORZ014>016-041-050900-
COLUMBIA GORGE


CITY           SKY/WX    TMP DP  RH WIND       PRES   REMARKS
TROUTDALE      PTCLDY    54  46  74 W5        30.02R
THE DALLES     PTCLDY    56  45  66 NW13      29.93S
$$

ORZ029>031-041-044-049-050-061>064-502-503-505>511-050900-
EASTERN OREGON


CITY           SKY/WX    TMP DP  RH WIND       PRES   REMARKS
REDMOND        PTCLDY    44  35  70 W7        29.98S
BEND           PTCLDY    41  37  87 SW6       29.99S
PRINEVILLE     CLOUDY    43  39  87 W6        29.98S
KLAMATH FALLS  PTCLDY    41  32  70 CALM      30.03S
LAKEVIEW       CLOUDY    36  32  87 N3          N/A
HERMISTON      CLOUDY    54  47  77 SW17G23   29.88S
PENDLETON      RAIN      50  45  83 SW16      29.89R
JOHN DAY       RAIN      43  41  93 W6        29.95R
MEACHAM        LGT RAIN  42  40  92 CALM      29.91R
LA GRANDE      CLOUDY    41  30  65 W12       29.91R
BAKER CITY     LGT RAIN  41  38  89 NW12      29.90R
BURNS          CLOUDY    41  38  89 SW3       29.95R
ROME             N/A     44  33  65 SW9       29.93R
ONTARIO        CLEAR     46  41  82 S3        29.89R
$$



USA.gov is the U.S. government's official web portal to all federal, state and local government web resources and services.